Location: Capel Gartheli
(52.1833°N, 4.0667°W)
Time: 02:10:45
(UTC+00:00)

Cosmos 407 Rocket - Pass Details

Date: 18 February 2020
Orbit: 745 x 785 km, 74.0° (Epoch: 05 April)

Event Time Altitude Azimuth Distance (km) Brightness Sun altitude
Rises 05:49:25 0° 200° (SSW) 3,261 6.6 -15.5°
Reaches altitude 10° 05:51:48 10° 199° (SSW) 2,333 5.8 -15.2°
Maximum altitude 05:57:06 82° 113° (ESE) 792 3.6 -14.4°
Drops below altitude 10° 06:02:24 10° 27° (NNE) 2,327 6.3 -13.6°
Sets 06:04:47 0° 26° (NNE) 3,251 7.1 -13.2°
